TimeCDT,TemperatureF,Dew PointF,Humidity,Sea Level PressureIn,VisibilityMPH,Wind Direction,Wind SpeedMPH,Gust SpeedMPH,PrecipitationIn,Events,Conditions,WindDirDegrees,DateUTC
12:15 AM,57.2,51.8,82,29.88,10.0,ESE,9.2,-,N/A,,Scattered Clouds,120,2012-10-22 05:15:00
12:55 AM,57.2,51.8,82,29.88,10.0,SE,8.1,-,N/A,,Scattered Clouds,130,2012-10-22 05:55:00
1:35 AM,59.0,51.8,77,29.87,10.0,SE,8.1,-,N/A,,Mostly Cloudy,130,2012-10-22 06:35:00
1:55 AM,59.0,53.6,82,29.87,10.0,SE,9.2,-,N/A,,Mostly Cloudy,130,2012-10-22 06:55:00
2:35 AM,59.0,53.6,82,29.86,10.0,SE,8.1,-,N/A,,Mostly Cloudy,130,2012-10-22 07:35:00
2:55 AM,60.8,53.6,77,29.86,10.0,SE,6.9,-,N/A,,Mostly Cloudy,130,2012-10-22 07:55:00
3:15 AM,60.8,53.6,77,29.86,10.0,SE,6.9,-,N/A,,Overcast,130,2012-10-22 08:15:00
3:55 AM,60.8,53.6,77,29.85,10.0,SE,6.9,-,N/A,,Overcast,130,2012-10-22 08:55:00
4:15 AM,60.8,55.4,82,29.86,10.0,SE,4.6,-,N/A,,Overcast,130,2012-10-22 09:15:00
4:35 AM,60.8,55.4,82,29.85,10.0,ESE,4.6,-,N/A,,Overcast,120,2012-10-22 09:35:00
4:55 AM,60.8,55.4,82,29.85,10.0,Calm,Calm,-,N/A,,Overcast,0,2012-10-22 09:55:00
5:15 AM,60.8,55.4,82,29.85,10.0,East,4.6,-,N/A,,Overcast,80,2012-10-22 10:15:00
5:35 AM,60.8,53.6,77,29.85,10.0,East,3.5,-,N/A,,Overcast,90,2012-10-22 10:35:00
5:55 AM,60.8,55.4,82,29.86,10.0,East,4.6,-,N/A,,Overcast,90,2012-10-22 10:55:00
6:15 AM,60.8,53.6,77,29.85,10.0,East,6.9,-,N/A,,Overcast,90,2012-10-22 11:15:00
6:35 AM,60.8,53.6,77,29.86,10.0,ESE,8.1,-,N/A,,Mostly Cloudy,110,2012-10-22 11:35:00
6:55 AM,60.8,55.4,82,29.86,10.0,East,6.9,-,N/A,,Overcast,100,2012-10-22 11:55:00
7:15 AM,60.8,55.4,82,29.85,10.0,East,4.6,-,N/A,,Mostly Cloudy,80,2012-10-22 12:15:00
7:35 AM,59.0,53.6,82,29.86,10.0,East,4.6,-,N/A,,Mostly Cloudy,80,2012-10-22 12:35:00
7:55 AM,60.8,55.4,82,29.85,10.0,East,6.9,-,N/A,,Overcast,80,2012-10-22 12:55:00
8:15 AM,60.8,55.4,82,29.86,7.0,East,6.9,-,N/A,,Overcast,80,2012-10-22 13:15:00
8:35 AM,60.8,55.4,82,29.86,7.0,East,5.8,-,N/A,,Mostly Cloudy,80,2012-10-22 13:35:00
8:55 AM,60.8,55.4,82,29.86,7.0,East,5.8,-,N/A,,Overcast,80,2012-10-22 13:55:00
9:15 AM,60.8,55.4,82,29.87,7.0,East,8.1,-,N/A,,Overcast,90,2012-10-22 14:15:00
9:35 AM,60.8,55.4,82,29.87,7.0,East,9.2,-,N/A,,Overcast,100,2012-10-22 14:35:00
9:55 AM,60.8,55.4,82,29.87,7.0,East,6.9,-,N/A,,Mostly Cloudy,100,2012-10-22 14:55:00
10:15 AM,60.8,55.4,82,29.87,7.0,SE,10.4,-,N/A,,Mostly Cloudy,130,2012-10-22 15:15:00
10:35 AM,60.8,55.4,82,29.88,4.0,ESE,4.6,-,N/A,Rain,Rain,120,2012-10-22 15:35:00
10:55 AM,60.8,57.2,88,29.87,4.0,Calm,Calm,-,N/A,Rain,Light Rain,0,2012-10-22 15:55:00
11:15 AM,60.8,57.2,88,29.86,4.0,East,4.6,-,N/A,Rain,Light Rain,80,2012-10-22 16:15:00
11:35 AM,60.8,57.2,88,29.86,3.0,ENE,11.5,-,0.01,Rain,Light Rain,60,2012-10-22 16:35:00
11:55 AM,60.8,57.2,88,29.86,4.0,East,8.1,-,0.02,,Overcast,80,2012-10-22 16:55:00
12:15 PM,62.6,57.2,82,29.86,3.0,East,6.9,-,N/A,,Overcast,80,2012-10-22 17:15:00
12:35 PM,62.6,59.0,88,29.86,4.0,ENE,5.8,-,N/A,,Overcast,60,2012-10-22 17:35:00
12:55 PM,64.4,60.8,88,29.85,5.0,ENE,5.8,-,N/A,,Haze,70,2012-10-22 17:55:00
1:15 PM,66.2,60.8,83,29.85,7.0,ESE,3.5,-,N/A,,Overcast,110,2012-10-22 18:15:00
1:35 PM,66.2,60.8,83,29.85,7.0,East,6.9,-,N/A,,Overcast,80,2012-10-22 18:35:00
1:55 PM,66.2,60.8,83,29.85,7.0,ESE,6.9,-,N/A,,Overcast,110,2012-10-22 18:55:00
2:15 PM,66.2,60.8,83,29.84,7.0,East,8.1,-,N/A,,Overcast,90,2012-10-22 19:15:00
2:35 PM,66.2,60.8,83,29.84,7.0,East,5.8,-,N/A,,Overcast,100,2012-10-22 19:35:00
2:55 PM,66.2,60.8,83,29.83,10.0,ENE,5.8,-,N/A,,Overcast,70,2012-10-22 19:55:00
3:15 PM,66.2,60.8,83,29.83,7.0,ENE,5.8,-,N/A,,Overcast,60,2012-10-22 20:15:00
3:35 PM,66.2,60.8,83,29.83,7.0,ENE,8.1,-,N/A,,Overcast,70,2012-10-22 20:35:00
3:55 PM,66.2,60.8,83,29.84,7.0,ENE,11.5,-,N/A,,Overcast,70,2012-10-22 20:55:00
4:15 PM,66.2,60.8,83,29.83,5.0,NE,12.7,-,N/A,,Haze,50,2012-10-22 21:15:00
4:35 PM,66.2,60.8,83,29.84,7.0,East,11.5,-,N/A,,Scattered Clouds,80,2012-10-22 21:35:00
4:55 PM,66.2,60.8,83,29.84,10.0,ENE,11.5,-,N/A,,Clear,70,2012-10-22 21:55:00
5:15 PM,66.2,60.8,83,29.85,10.0,East,12.7,-,N/A,,Clear,80,2012-10-22 22:15:00
5:35 PM,66.2,60.8,83,29.86,10.0,East,8.1,-,N/A,,Mostly Cloudy,80,2012-10-22 22:35:00
5:55 PM,66.2,60.8,83,29.85,10.0,East,11.5,-,N/A,,Scattered Clouds,80,2012-10-22 22:55:00
6:15 PM,64.4,60.8,88,29.86,7.0,East,9.2,-,N/A,,Scattered Clouds,80,2012-10-22 23:15:00
6:35 PM,64.4,60.8,88,29.86,7.0,East,9.2,-,N/A,,Mostly Cloudy,80,2012-10-22 23:35:00
6:55 PM,64.4,59.0,83,29.86,7.0,East,9.2,-,N/A,,Overcast,80,2012-10-22 23:55:00
7:15 PM,64.4,59.0,83,29.87,7.0,East,9.2,-,N/A,,Overcast,80,2012-10-23 00:15:00
7:35 PM,64.4,59.0,83,29.86,7.0,East,11.5,-,N/A,,Overcast,90,2012-10-23 00:35:00
7:55 PM,64.4,59.0,83,29.87,7.0,East,8.1,-,N/A,,Overcast,80,2012-10-23 00:55:00
8:15 PM,64.4,59.0,83,29.87,7.0,East,8.1,-,N/A,,Overcast,90,2012-10-23 01:15:00
8:55 PM,64.4,59.0,83,29.86,7.0,East,9.2,-,N/A,,Overcast,80,2012-10-23 01:55:00
9:15 PM,64.4,59.0,83,29.86,7.0,East,9.2,-,N/A,,Overcast,90,2012-10-23 02:15:00
9:35 PM,64.4,59.0,83,29.86,7.0,East,10.4,-,N/A,,Overcast,100,2012-10-23 02:35:00
9:55 PM,64.4,59.0,83,29.86,7.0,East,11.5,-,N/A,,Overcast,90,2012-10-23 02:55:00
10:15 PM,62.6,59.0,88,29.85,7.0,East,11.5,-,N/A,,Overcast,100,2012-10-23 03:15:00
10:35 PM,62.6,59.0,88,29.85,7.0,East,12.7,-,N/A,,Overcast,90,2012-10-23 03:35:00
10:55 PM,62.6,59.0,88,29.85,5.0,East,12.7,-,N/A,,Overcast,100,2012-10-23 03:55:00
11:15 PM,62.6,57.2,82,29.85,4.0,East,13.8,-,N/A,,Haze,100,2012-10-23 04:15:00
11:35 PM,62.6,57.2,82,29.84,4.0,East,12.7,-,N/A,,Haze,100,2012-10-23 04:35:00